Location: Biharia
(46.4333°N, 22.8000°E)
Time: 05:01:44
(UTC+00:00)

Cosmos 494 Rocket - Pass Details

Date: 31 May 2022
Orbit: 742 x 770 km, 74.1° (Epoch: 05 July)

Event Time Altitude Azimuth Distance (km) Brightness Sun altitude
Rises 22:48:57 0° 327° (NNW) 3,191 8.0 -21.4°
Reaches altitude 10° 22:51:39 10° 315° (NW) 2,263 6.9 -21.3°
Maximum altitude 22:55:46 25° 261° (W) 1,467 5.3 -21.2°
Enters shadow 22:56:27 25° 248° (WSW) 1,492 5.2 -21.2°
